Simultaneous Nadir Overpasses (SNOs) Predictions

Prediction of SNOs between AQUA and GOES-15 Satellite Orbit:

Table of predicted SNOs for the next 14.0 days since TLE Epoch: 8/7/2020
Index Date Time (AQUA) AQUA Lat,Lon GOES-15 Lat,Lon Distance(km) Time Diff (sec)
1 08/08/2020 09:55:03 -0.72,-124.94 -0.01,-128.28 379.95 80
2 08/08/2020 22:16:27 -0.41,-130.12 0.01,-128.22 216.93 80
3 08/10/2020 22:04:16 0.20,-127.17 0.01,-128.17 113.25 80
4 08/11/2020 10:25:32 0.87,-132.33 -0.01,-128.20 469.60 80
5 08/12/2020 21:52:05 0.82,-124.21 0.01,-128.11 442.72 80
6 08/13/2020 10:13:21 0.25,-129.37 -0.01,-128.14 140.34 80
7 08/15/2020 10:01:10 -0.37,-126.41 -0.02,-128.07 188.18 80
8 08/15/2020 22:22:34 -0.77,-131.60 0.02,-128.00 409.72 80
9 08/17/2020 22:10:23 -0.14,-128.65 0.02,-127.93 81.95 80
10 08/19/2020 21:58:12 0.48,-125.69 0.02,-127.85 245.48 80
11 08/20/2020 10:19:28 0.58,-130.85 -0.02,-127.88 337.75 80
